Location: ??? ????
(38.0580°N, 23.1536°E)
Time: 15:07:18
(UTC+00:00)

BREEZE M DEB (TANK) - Pass Details

Date: 13 December 2025
Orbit: 288 x 13771 km, 49.5° (Epoch: 17 January)

Event Time Altitude Azimuth Distance (km) Brightness Sun altitude
Rises 15:39:14 0° 261° (W) 3,145 8.5 -6.3°
Reaches altitude 10° 15:42:40 10° 281° (W) 1,514 6.0 -6.9°
Maximum altitude 15:44:44 18° 330° (NNW) 885 4.0 -7.3°
Drops below altitude 10° 15:46:21 10° 20° (NNE) 1,141 4.1 -7.5°
Enters shadow 15:46:52 - 29° (NNE) 1,342 4.3 -7.6°
